Temp
7 7 7 7 8 8 9 9 10 9 9 9 9 9 9 9 9 9 8 8 8 8 8 8 8 8 8 7 7 7 7 7 7 8 8 8 8 8 8 8 8 9 9 9 9 9 9 9 9 9 9 8 8 8 8 9 9 10 10 10 10 11 11 11 11 11 11 12 12 12 13 12 12 12 13 13 13 13 13 13 13 12 12 12 12
6 6 7 7 8 8 8 9 9 9 9 9 9 9 9 8 8 8 8 8 8 8 8 7 7 7 7 7 7 7 7 7 7 7 7 7 7 7 7 7 8 8 8 8 8 8 9 9 9 9 9 8 8 7 8 9 9 10 10 10 10 10 10 11 11 11 11 11 11 12 12 12 12 12 12 13 13 13 13 13 13 12 12 12 12
6 6 6 7 8 8 8 8 8 8 8 8 8 8 8 8 8 8 8 7 7 7 7 7 7 7 7 7 7 7 7 7 7 6 7 7 7 7 7 7 7 7 7 7 7 7 7 8 8 8 8 8 7 7 7 8 9 9 10 10 10 10 10 10 11 11 11 11 11 11 12 12 12 12 12 13 13 13 13 13 13 13 12 12 12
5 6 6 7 7 8 8 8 8 8 8 7 7 7 7 7 7 7 7 7 7 7 6 6 6 7 7 7 7 7 7 6 6 6 6 6 6 6 6 6 6 6 6 6 6 6 6 6 7 7 7 7 7 6 7 7 8 8 9 9 10 10 10 10 10 10 11 11 11 11 11 12 12 12 13 12 12 12 13 13 13 12 12 12 12
5 6 6 7 7 8 8 8 7 7 7 7 7 7 7 6 6 6 6 6 6 6 6 6 6 6 6 6 6 6 6 6 6 6 6 6 5 5 5 5 5 5 6 5 5 5 5 5 5 5 6 5 5 5 6 6 7 8 8 8 9 9 10 10 10 10 10 11 11 11 11 11 11 12 12 12 12 12 12 13 13 12 12 12 12
5 6 6 7 7 7 7 7 7 6 6 6 6 6 6 6 6 6 6 6 6 6 6 6 6 6 6 6 6 6 6 6 6 6 6 6 5 5 5 5 5 5 5 5 5 5 5 4 4 4 4 4 4 4 5 5 6 7 7 8 8 9 9 10 10 10 10 10 11 11 11 11 11 11 12 11 11 12 12 12 12 12 12 12 12
5 6 6 6 7 7 7 6 6 6 6 6 5 5 5 5 5 5 5 5 6 6 5 5 5 5 5 5 5 5 6 6 6 6 6 5 5 5 4 4 5 5 5 5 5 5 5 4 4 4 4 4 3 4 4 4 5 6 6 7 7 8 8 9 9 9 10 10 11 11 11 11 11 11 11 11 11 12 12 12 12 11 11 12 12
5 5 5 6 6 6 6 6 5 5 5 5 5 5 5 5 5 5 5 5 5 5 5 5 5 5 5 5 5 5 5 5 5 5 5 5 4 4 4 4 4 4 4 4 4 4 4 4 4 4 3 3 3 3 3 4 4 4 5 6 6 7 7 8 9 9 9 10 10 11 11 11 11 11 11 10 11 11 12 12 11 11 11 12 12
5 5 5 5 5 5 5 5 5 5 5 5 5 5 5 5 4 4 5 4 4 4 4 4 5 5 5 5 5 5 5 5 4 4 4 4 4 3 3 3 3 3 4 4 4 4 4 4 4 4 3 3 3 3 3 3 3 4 4 5 5 6 7 7 8 8 9 9 10 10 10 11 11 10 10 10 11 11 11 11 11 11 11 12 12
5 5 5 5 5 5 4 4 4 4 4 4 4 4 4 4 4 4 4 4 4 4 4 4 4 4 4 4 4 4 4 4 4 4 4 4 4 3 3 3 3 3 3 3 3 3 3 3 4 4 4 3 3 3 4 4 4 4 4 4 4 5 6 7 7 8 8 8 9 9 10 10 10 10 10 11 11 11 11 11 11 11 11 11 11
4 4 4 4 4 4 4 4 4 4 4 4 4 4 4 4 4 4 4 4 4 4 4 4 4 4 4 4 4 4 4 4 4 4 4 4 4 3 3 3 3 3 2 2 2 2 3 3 3 4 4 3 3 3 3 4 4 4 5 4 4 4 4 5 6 7 7 8 8 9 9 10 10 10 11 11 11 11 12 12 11 11 11 10 10
4 4 4 4 4 4 4 4 4 4 4 4 4 4 3 4 3 3 3 3 4 4 4 4 4 4 4 4 4 4 4 3 4 4 4 4 4 3 3 3 3 2 2 2 2 2 2 2 2 3 3 2 2 2 3 3 4 4 5 5 5 5 4 5 5 6 7 7 8 9 9 9 10 10 10 10 10 11 12 12 11 11 11 10 10
3 3 3 3 3 3 3 3 3 4 3 3 3 3 3 3 3 3 3 3 3 3 3 3 4 4 3 3 3 4 4 3 4 4 4 4 4 3 3 2 2 2 2 2 2 2 1 1 1 1 1 1 0 1 1 2 3 4 5 5 6 6 5 5 5 6 6 7 7 8 9 9 9 10 10 10 10 11 12 12 11 10 10 10 11
3 3 3 3 3 3 3 3 3 3 3 3 3 3 3 2 2 3 3 3 3 3 3 3 3 3 3 3 3 3 3 3 4 4 4 4 3 3 2 2 2 2 2 2 2 1 1 1 0 -0 -1 -1 -1 -1 -0 1 2 3 4 5 5 6 6 6 6 6 6 6 7 8 9 9 9 9 10 10 10 11 12 12 12 11 11 11 11
3 3 3 3 3 3 3 3 3 3 3 3 2 2 2 2 2 2 2 2 3 2 3 3 3 3 3 3 3 3 3 3 3 3 3 3 3 3 2 2 2 2 1 1 1 1 1 1 0 -0 -1 -1 -1 -1 -1 -1 0 1 3 4 4 5 6 6 7 7 7 7 7 8 9 9 9 9 10 10 10 10 11 12 12 12 11 11 11
3 3 3 3 3 3 3 3 2 2 2 2 2 2 2 2 2 2 2 2 2 2 2 2 2 2 2 3 3 3 3 3 3 2 2 2 2 2 2 1 1 1 1 1 1 1 0 0 -0 -0 -0 -1 -1 -1 -1 -1 -1 0 1 2 3 5 6 7 7 7 7 7 7 8 9 9 9 9 10 10 10 10 10 10 10 11 11 11 10
2 2 2 2 2 2 2 2 2 2 2 2 2 2 2 2 2 2 2 2 2 2 2 2 2 2 2 3 3 2 2 2 2 1 1 0 0 1 1 1 1 1 1 1 1 1 0 -0 -1 -1 -1 -1 -1 -1 -1 -1 -1 -0 0 0 1 3 5 7 7 7 7 7 7 8 9 9 10 10 10 10 10 10 10 10 10 10 10 10 10
2 2 2 2 2 2 2 2 2 2 2 2 2 2 2 2 2 2 2 2 2 2 2 2 2 2 2 2 2 2 2 1 1 -0 -1 -1 -1 -1 -1 0 0 1 1 1 1 0 0 -0 -1 -1 -1 -1 -1 -1 -1 -1 -1 -0 -0 -0 0 1 4 6 7 8 8 8 7 8 9 10 10 10 10 10 10 10 10 10 10 10 10 10 10
2 2 2 2 2 2 2 2 2 2 2 2 2 2 2 1 1 1 2 2 2 2 2 2 2 2 2 2 2 1 1 1 -0 -1 -2 -2 -2 -2 -1 -1 -0 -0 0 0 0 0 -0 -0 -1 -1 -2 -1 -1 -1 -1 -1 -1 -1 -1 -1 -0 0 2 4 5 6 8 8 8 8 9 10 10 10 10 10 10 10 10 10 10 10 10 10 10
2 2 2 2 2 2 2 2 2 2 2 2 1 2 1 1 1 1 2 2 2 2 2 2 2 2 2 2 1 1 0 -0 -1 -2 -3 -3 -3 -2 -2 -2 -1 -1 -1 -1 -1 -1 -1 -1 -1 -1 -2 -1 -1 -1 -1 -1 -1 -1 -1 -1 -1 -0 1 2 3 4 5 7 8 9 10 10 10 10 10 9 9 10 10 10 10 10 10 10 10
2 2 2 2 2 2 2 2 2 1 1 1 1 2 2 1 1 2 2 2 2 2 2 2 2 2 2 2 1 0 -0 -1 -2 -3 -3 -3 -3 -3 -2 -2 -2 -1 -1 -1 -1 -1 -1 -1 -1 -1 -2 -1 -1 -1 -1 -1 -1 -1 -1 -1 -1 -0 0 1 2 3 4 6 7 8 9 10 10 10 9 9 9 10 10 10 10 10 10 10 10
2 2 2 2 2 2 2 2 2 1 1 1 1 2 2 2 2 2 2 2 2 2 2 2 2 2 2 2 1 0 -0 -1 -2 -3 -3 -3 -3 -3 -3 -3 -2 -2 -2 -2 -1 -1 -1 -2 -2 -2 -2 -1 -1 -1 -1 -1 -1 -1 -1 -1 -1 -0 0 1 2 3 4 5 6 7 7 8 9 9 9 9 9 10 10 10 10 10 10 10 10
2 2 2 2 2 2 2 2 2 2 1 1 1 2 2 2 2 2 2 2 2 2 2 2 2 2 2 2 1 1 -0 -1 -2 -3 -3 -4 -3 -3 -3 -3 -2 -2 -2 -2 -2 -2 -2 -2 -2 -2 -2 -1 -1 -1 -1 -1 -1 -1 -1 -1 -1 -0 0 0 1 2 3 4 5 6 7 7 8 8 9 9 9 9 10 10 10 9 9 10 10
3 2 2 2 2 2 2 2 2 2 1 1 1 1 2 2 2 1 1 1 1 1 1 1 1 1 1 1 1 0 -0 -0 -1 -2 -3 -3 -3 -3 -3 -3 -2 -2 -2 -2 -2 -2 -2 -2 -2 -2 -2 -2 -2 -2 -1 -1 -1 -1 -1 -1 -1 -0 -0 -0 -0 1 2 3 4 5 6 6 7 7 8 8 9 9 9 9 9 9 9 9 9
3 2 2 2 2 2 2 2 2 2 2 1 1 1 1 1 1 1 1 1 1 1 1 1 1 1 1 1 0 -0 -0 -1 -1 -2 -3 -3 -3 -3 -3 -3 -2 -2 -2 -2 -2 -2 -2 -2 -2 -2 -2 -2 -2 -2 -2 -2 -1 -1 -1 -1 -1 -1 -1 -1 -1 -0 1 1 2 3 4 5 5 6 7 7 8 8 9 9 9 9 9 9 9
3 3 3 2 2 2 2 2 2 2 2 2 1 1 1 1 1 1 1 1 1 1 1 1 1 1 0 0 -0 -1 -1 -1 -1 -2 -3 -3 -4 -3 -3 -3 -3 -2 -2 -2 -2 -2 -2 -2 -2 -1 -2 -2 -3 -3 -2 -2 -2 -1 -1 -1 -1 -1 -1 -1 -1 -1 -1 0 1 1 2 3 4 5 5 6 7 7 7 8 8 8 8 9 9
3 3 3 2 2 2 2 2 2 2 2 2 1 1 1 1 1 1 1 1 1 1 1 0 0 0 0 0 -0 -1 -1 -1 -2 -2 -3 -3 -3 -3 -3 -3 -3 -3 -2 -2 -2 -2 -2 -2 -2 -2 -2 -2 -2 -3 -3 -2 -2 -2 -1 -1 -1 -1 -1 -1 -1 -1 -1 -1 -0 1 2 3 3 4 4 5 5 6 6 6 6 7 7 8 8
3 3 3 2 2 2 2 2 2 2 2 2 1 1 1 1 1 1 1 1 1 1 0 0 -0 -0 -0 -0 -0 -0 -1 -1 -2 -2 -3 -3 -3 -3 -3 -3 -3 -3 -3 -2 -2 -2 -2 -2 -2 -2 -2 -2 -2 -3 -3 -3 -2 -2 -2 -1 -1 -1 -1 -1 -1 -1 -0 -0 -0 1 1 2 3 3 4 4 4 5 5 5 5 6 6 7 7
3 3 3 2 2 2 2 2 2 2 2 2 1 1 1 1 1 1 1 1 1 1 0 0 -0 -0 -1 -1 -1 -1 -1 -1 -2 -2 -3 -3 -3 -3 -3 -3 -3 -3 -3 -3 -2 -2 -2 -2 -2 -2 -3 -3 -3 -3 -3 -3 -3 -2 -2 -2 -2 -1 -1 -1 -1 -1 -1 -0 -0 0 1 1 2 3 4 4 4 4 4 5 5 5 5 5 6
3 3 2 2 2 2 2 2 2 2 2 2 1 1 1 1 1 1 1 1 1 0 0 0 0 -0 -0 -1 -1 -1 -1 -1 -2 -2 -2 -3 -3 -3 -3 -3 -3 -3 -3 -3 -3 -3 -3 -3 -3 -3 -3 -3 -3 -3 -3 -3 -3 -3 -2 -2 -2 -2 -2 -2 -1 -1 -1 -1 -0 -0 0 0 1 2 2 2 2 3 3 4 4 4 5 5 5
3 3 2 2 2 2 2 2 2 2 2 2 1 1 1 1 1 1 1 1 1 0 0 -0 -0 -0 -0 -0 -1 -1 -1 -1 -1 -1 -2 -2 -2 -3 -3 -3 -3 -3 -3 -3 -3 -3 -3 -3 -3 -3 -3 -3 -4 -4 -4 -4 -4 -3 -3 -2 -2 -2 -2 -2 -2 -1 -1 -1 -1 -0 -0 -0 0 0 0 1 1 1 2 2 2 3 3 4 4
3 3 2 2 2 2 2 2 2 2 2 2 2 2 1 1 1 1 1 1 1 0 0 -0 -0 -0 -1 -1 -0 -0 -0 -0 -1 -1 -1 -2 -2 -2 -2 -3 -3 -3 -3 -3 -3 -3 -3 -3 -3 -4 -4 -4 -4 -4 -4 -4 -4 -3 -3 -3 -3 -2 -2 -2 -2 -2 -1 -1 -1 -1 -1 -1 -1 -0 0 0 1 1 1 1 1 1 1 2 2
3 3 2 2 2 2 2 2 2 2 2 2 2 2 2 1 1 1 1 1 1 0 0 -0 -0 -0 -1 -1 -1 -0 -0 -0 -0 -1 -1 -1 -2 -2 -2 -2 -3 -3 -3 -3 -3 -3 -3 -3 -3 -3 -4 -4 -4 -4 -4 -3 -3 -3 -3 -3 -3 -3 -3 -2 -2 -2 -2 -1 -1 -1 -1 -1 -1 -1 -1 -0 -0 0 0 0 1 1 1 1 0
3 3 3 2 2 2 2 2 2 2 2 2 2 2 2 1 1 1 1 1 1 0 0 0 -0 -0 -1 -1 -1 -1 -0 -0 -0 -1 -1 -1 -1 -1 -2 -1 -2 -2 -3 -3 -4 -4 -4 -4 -4 -3 -4 -4 -4 -3 -3 -3 -3 -3 -3 -3 -3 -3 -2 -2 -2 -2 -2 -1 -1 -1 -1 -1 -1 -1 -1 -1 -1 -1 -0 -0 0 0 0 0 0
3 3 2 2 2 2 2 2 2 2 2 2 2 2 2 2 1 1 1 1 1 0 0 0 -0 -0 -0 -1 -1 -1 -1 -0 -1 -1 -1 -1 -1 -1 -1 -1 -1 -2 -3 -3 -4 -4 -4 -4 -4 -3 -3 -4 -4 -4 -3 -3 -3 -3 -3 -3 -3 -3 -2 -2 -2 -2 -2 -2 -2 -2 -2 -2 -2 -2 -1 -1 -1 -1 -1 -1 -0 -0 -0 -0 -0
3 3 2 2 2 2 2 2 2 2 2 2 2 2 2 2 2 1 1 1 1 1 0 0 0 -0 -0 -1 -1 -1 -1 -1 -1 -1 -1 -1 -1 -1 -1 -1 -2 -2 -3 -3 -3 -4 -4 -4 -4 -4 -3 -3 -3 -4 -4 -3 -3 -3 -3 -3 -3 -3 -3 -3 -2 -2 -2 -2 -2 -2 -2 -2 -2 -2 -1 -1 -1 -1 -1 -1 -1 -1 -1 -0 -0
3 3 2 2 2 2 2 2 2 2 2 2 2 2 2 2 2 2 1 1 1 1 0 0 0 -0 -0 -0 -1 -1 -1 -1 -1 -1 -1 -1 -1 -1 -1 -2 -2 -2 -2 -3 -3 -3 -4 -4 -4 -4 -4 -3 -3 -3 -4 -3 -3 -3 -3 -3 -3 -3 -3 -3 -2 -2 -2 -2 -2 -2 -2 -2 -2 -2 -2 -2 -2 -2 -1 -1 -1 -1 -1 -0 -0
3 3 3 3 3 2 2 2 2 2 2 2 2 2 2 2 2 2 1 1 1 1 0 0 0 -0 -0 -0 -0 -1 -1 -1 -0 -0 -1 -1 -1 -1 -1 -2 -2 -2 -3 -3 -3 -3 -4 -4 -4 -4 -4 -3 -3 -3 -3 -3 -3 -3 -3 -3 -3 -2 -3 -3 -2 -2 -2 -2 -2 -2 -2 -2 -2 -2 -2 -2 -2 -2 -2 -1 -1 -1 -1 -1 -0
3 3 3 3 3 2 2 2 2 2 2 2 2 2 2 2 2 2 1 1 1 1 1 0 0 -0 -0 -0 -0 -0 -1 -1 -1 -1 -1 -1 -1 -1 -1 -1 -2 -2 -2 -3 -3 -3 -3 -4 -4 -4 -4 -3 -3 -3 -3 -3 -3 -3 -3 -3 -3 -2 -2 -3 -3 -2 -2 -2 -2 -2 -2 -2 -2 -2 -2 -2 -2 -2 -2 -2 -1 -1 -1 -1 -1
3 3 3 3 3 3 2 2 2 2 2 2 2 2 2 2 2 2 1 1 1 1 1 0 0 0 -0 -0 -0 -0 -1 -1 -1 -1 -1 -1 -1 -1 -1 -1 -2 -2 -2 -3 -3 -3 -3 -4 -4 -4 -4 -3 -3 -3 -3 -3 -3 -3 -3 -3 -3 -2 -2 -3 -3 -2 -2 -2 -2 -2 -2 -2 -2 -2 -2 -2 -2 -2 -2 -2 -2 -2 -1 -1 -1
3 3 3 3 3 3 2 2 2 2 2 2 2 2 2 2 2 2 2 1 1 1 1 1 0 0 0 0 -0 -0 -1 -1 -1 -1 -1 -2 -2 -2 -2 -2 -2 -2 -2 -3 -3 -3 -4 -4 -4 -4 -4 -4 -3 -3 -3 -3 -3 -3 -3 -3 -3 -3 -2 -2 -2 -2 -2 -2 -2 -2 -2 -2 -2 -2 -2 -2 -2 -2 -2 -2 -2 -2 -2 -2 -2
3 3 3 3 3 3 3 3 2 2 2 2 2 2 2 2 2 2 2 1 1 1 1 1 1 0 0 0 0 -0 -1 -1 -1 -1 -1 -2 -2 -2 -2 -2 -2 -2 -2 -3 -3 -3 -4 -4 -4 -4 -4 -4 -4 -4 -3 -3 -3 -3 -3 -3 -3 -3 -3 -2 -2 -2 -2 -2 -2 -2 -2 -2 -2 -2 -2 -2 -2 -2 -2 -2 -2 -2 -2 -2 -2
3 3 3 3 3 3 3 3 2 2 2 2 2 2 2 2 2 2 2 1 1 1 1 1 1 1 1 0 0 0 -0 -1 -1 -1 -1 -1 -2 -2 -2 -2 -2 -2 -2 -3 -3 -3 -4 -4 -4 -4 -4 -4 -4 -4 -4 -3 -3 -3 -3 -2 -2 -3 -3 -3 -3 -3 -2 -2 -2 -2 -2 -2 -2 -2 -2 -2 -2 -2 -2 -2 -2 -2 -2 -2 -2
3 3 3 3 3 3 3 3 3 3 2 2 2 2 2 2 2 2 2 2 1 1 1 1 1 1 1 1 0 0 -0 -0 -1 -1 -1 -1 -2 -2 -2 -2 -2 -2 -2 -3 -3 -3 -3 -4 -4 -4 -4 -4 -4 -4 -4 -4 -3 -3 -3 -3 -2 -2 -2 -3 -3 -3 -3 -3 -2 -2 -2 -2 -2 -2 -2 -2 -2 -2 -2 -2 -2 -2 -2 -2 -2
3 3 3 3 3 3 3 3 3 3 3 2 2 2 2 2 2 2 2 2 2 1 1 1 1 1 1 1 1 1 0 -0 -0 -1 -1 -1 -1 -2 -2 -2 -2 -2 -2 -2 -3 -3 -3 -4 -4 -4 -4 -4 -4 -4 -4 -4 -4 -3 -3 -3 -3 -3 -3 -3 -3 -3 -3 -3 -3 -3 -2 -2 -2 -2 -2 -2 -2 -2 -2 -2 -2 -2 -2 -2 -2
3 3 3 3 3 3 3 3 3 3 3 2 2 2 2 2 2 2 2 2 2 2 1 1 1 1 1 1 1 1 0 0 0 -0 -1 -1 -1 -1 -2 -2 -2 -2 -2 -2 -3 -3 -3 -3 -4 -4 -4 -4 -4 -4 -4 -4 -4 -4 -3 -3 -3 -3 -3 -3 -3 -3 -3 -3 -3 -3 -3 -2 -2 -2 -2 -2 -2 -2 -2 -2 -2 -2 -2 -2 -2
3 3 3 3 3 3 3 3 3 3 3 3 2 2 2 2 2 2 2 2 2 2 2 1 1 1 1 1 1 1 1 0 0 -0 -0 -1 -1 -1 -1 -2 -2 -2 -2 -2 -3 -3 -3 -3 -3 -4 -4 -4 -4 -4 -4 -4 -4 -4 -4 -4 -3 -3 -3 -3 -3 -3 -3 -3 -3 -3 -3 -3 -3 -2 -2 -2 -2 -2 -2 -2 -2 -2 -2 -2 -2
3 3 3 3 3 3 3 3 3 3 3 3 3 2 2 2 2 2 2 2 2 2 2 2 1 1 1 1 1 1 1 0 0 0 0 -0 -0 -1 -1 -1 -1 -2 -2 -2 -2 -3 -3 -3 -3 -3 -4 -4 -4 -4 -4 -4 -4 -4 -4 -4 -3 -3 -3 -3 -3 -3 -3 -3 -3 -3 -3 -3 -3 -3 -2 -2 -2 -2 -2 -2 -2 -2 -2 -2 -2
3 3 3 3 3 3 3 3 3 3 3 3 3 2 2 2 2 2 2 2 2 2 2 2 2 1 1 1 1 1 1 1 0 0 0 0 -0 -0 -1 -1 -1 -1 -2 -2 -2 -2 -2 -3 -3 -3 -3 -3 -4 -4 -4 -4 -4 -4 -4 -4 -4 -4 -3 -3 -3 -3 -3 -3 -3 -3 -3 -3 -3 -3 -3 -3 -3 -2 -2 -2 -2 -2 -2 -2 -2
3 3 3 3 3 3 3 3 3 3 3 3 3 2 2 2 2 2 2 2 2 2 2 2 2 1 1 1 1 1 1 1 1 1 0 0 0 -0 -0 -1 -1 -1 -1 -2 -2 -2 -2 -2 -3 -3 -3 -3 -3 -3 -4 -4 -4 -4 -4 -4 -4 -4 -4 -3 -3 -3 -3 -3 -3 -3 -3 -3 -3 -3 -3 -3 -3 -3 -3 -2 -2 -2 -2 -2 -2
3 3 3 3 3 3 3 3 3 3 3 3 3 3 3 2 2 2 2 2 2 2 2 2 2 1 1 1 1 1 1 1 1 1 1 0 0 0 -0 -0 -0 -1 -1 -1 -2 -2 -2 -2 -2 -3 -3 -3 -3 -3 -3 -4 -4 -4 -4 -4 -4 -4 -4 -3 -3 -3 -3 -3 -3 -3 -3 -3 -3 -4 -4 -4 -3 -3 -3 -3 -3 -2 -2 -2 -2
Height
1547 1547 1547 1547 1547 1546 1547 1546 1546 1547 1546 1546 1546 1545 1544 1544 1543 1542 1541 1540 1539 1537 1536 1535 1533 1532 1531 1530 1528 1527 1525 1523 1522 1520 1518 1516 1514 1512 1510 1508 1506 1504 1502 1500 1498 1496 1494 1492 1490 1489 1487 1485 1484 1485 1485 1484 1484 1483 1483 1482 1480 1479 1478 1476 1474 1472 1473 1475 1476 1478 1479 1479 1479 1480 1482 1483 1484 1485 1486 1487 1489 1491 1492 1494 1497
1548 1548 1547 1547 1547 1547 1547 1547 1547 1548 1548 1547 1547 1546 1545 1544 1544 1543 1542 1541 1539 1538 1536 1535 1534 1533 1531 1530 1529 1527 1525 1523 1521 1519 1517 1516 1514 1511 1509 1507 1504 1502 1500 1498 1496 1494 1492 1490 1488 1486 1485 1483 1482 1482 1482 1481 1481 1480 1479 1478 1477 1476 1475 1474 1472 1470 1469 1470 1471 1473 1475 1475 1474 1476 1478 1478 1480 1481 1482 1483 1484 1485 1487 1489 1492
1548 1548 1548 1547 1547 1548 1548 1548 1548 1548 1549 1548 1547 1547 1546 1545 1545 1544 1542 1541 1540 1538 1537 1536 1535 1533 1532 1530 1529 1527 1525 1523 1521 1519 1517 1515 1513 1511 1508 1506 1503 1501 1499 1497 1495 1493 1490 1488 1486 1484 1482 1481 1479 1479 1479 1478 1477 1475 1475 1474 1473 1472 1471 1471 1469 1468 1466 1465 1466 1468 1470 1470 1470 1471 1473 1474 1476 1477 1477 1479 1480 1480 1481 1484 1486
1549 1549 1549 1548 1548 1548 1548 1549 1549 1550 1550 1549 1548 1548 1547 1546 1545 1544 1543 1542 1540 1539 1538 1537 1535 1534 1532 1530 1528 1527 1525 1523 1522 1519 1517 1515 1512 1510 1508 1505 1503 1501 1498 1496 1494 1491 1489 1487 1485 1483 1480 1478 1477 1476 1475 1474 1473 1472 1471 1470 1469 1468 1467 1467 1466 1465 1463 1462 1461 1462 1464 1465 1465 1467 1469 1470 1471 1472 1473 1474 1474 1474 1477 1480 1482
1550 1550 1550 1549 1549 1549 1549 1550 1550 1551 1551 1550 1549 1549 1548 1547 1546 1545 1543 1542 1541 1540 1538 1537 1536 1534 1532 1530 1529 1527 1525 1523 1522 1519 1517 1515 1513 1510 1508 1505 1503 1501 1498 1496 1494 1491 1489 1486 1484 1482 1479 1477 1475 1473 1472 1471 1470 1469 1467 1466 1465 1464 1463 1462 1462 1461 1460 1458 1457 1457 1459 1460 1460 1462 1464 1465 1465 1466 1467 1468 1468 1470 1473 1476 1478
1551 1551 1551 1550 1550 1550 1550 1551 1552 1552 1552 1551 1551 1550 1549 1548 1547 1546 1544 1543 1542 1541 1539 1538 1536 1535 1533 1531 1530 1528 1526 1524 1522 1519 1517 1515 1513 1510 1508 1506 1503 1500 1498 1495 1493 1491 1488 1486 1483 1481 1479 1476 1474 1472 1470 1468 1467 1466 1464 1463 1461 1460 1458 1458 1457 1456 1455 1454 1453 1453 1453 1454 1454 1455 1457 1459 1460 1461 1462 1463 1464 1465 1467 1470 1472
1552 1552 1552 1551 1551 1551 1552 1552 1553 1553 1553 1552 1552 1551 1550 1549 1548 1547 1545 1544 1543 1542 1540 1539 1537 1536 1534 1532 1530 1528 1526 1524 1522 1520 1517 1514 1512 1510 1507 1505 1503 1500 1498 1495 1492 1490 1488 1485 1483 1480 1478 1476 1473 1471 1468 1466 1464 1463 1462 1459 1457 1456 1454 1454 1453 1452 1451 1450 1449 1448 1448 1449 1449 1449 1451 1454 1455 1456 1457 1458 1459 1460 1461 1464 1466
1553 1553 1552 1552 1552 1552 1553 1554 1554 1554 1554 1553 1553 1552 1551 1550 1549 1548 1547 1545 1544 1543 1542 1540 1539 1537 1535 1533 1531 1529 1527 1524 1521 1519 1516 1514 1511 1509 1506 1504 1501 1499 1497 1494 1492 1489 1487 1484 1482 1479 1477 1475 1473 1470 1468 1465 1461 1460 1459 1457 1455 1453 1451 1450 1449 1448 1447 1446 1445 1444 1444 1443 1443 1443 1446 1448 1448 1449 1450 1452 1454 1455 1456 1458 1460
1554 1554 1553 1553 1553 1553 1554 1555 1556 1556 1555 1555 1554 1553 1553 1552 1551 1550 1548 1547 1545 1544 1543 1542 1540 1538 1536 1534 1531 1529 1527 1524 1521 1518 1516 1513 1511 1508 1506 1503 1500 1498 1495 1493 1491 1488 1486 1484 1481 1478 1476 1474 1472 1469 1467 1465 1461 1457 1455 1454 1452 1450 1448 1446 1444 1443 1442 1441 1441 1440 1439 1438 1437 1438 1440 1440 1440 1442 1446 1448 1449 1450 1452 1453 1455
1555 1554 1554 1554 1554 1555 1556 1557 1557 1557 1556 1556 1555 1555 1554 1553 1552 1551 1549 1548 1547 1545 1544 1542 1540 1538 1536 1534 1531 1529 1526 1524 1522 1519 1517 1514 1511 1508 1506 1503 1500 1497 1494 1491 1488 1486 1484 1482 1479 1477 1474 1471 1469 1466 1464 1463 1460 1457 1454 1451 1449 1447 1445 1442 1440 1439 1438 1436 1436 1436 1435 1433 1432 1433 1433 1434 1436 1439 1441 1443 1444 1446 1448 1449 1450
1556 1555 1555 1555 1556 1557 1558 1558 1558 1558 1557 1557 1557 1556 1556 1555 1554 1552 1551 1549 1548 1546 1544 1542 1540 1538 1536 1534 1532 1529 1527 1524 1522 1520 1517 1514 1511 1508 1505 1503 1500 1496 1493 1490 1487 1484 1481 1479 1477 1474 1472 1468 1465 1462 1460 1458 1456 1455 1453 1450 1447 1444 1442 1439 1436 1435 1434 1432 1431 1431 1430 1429 1429 1429 1429 1431 1433 1434 1435 1437 1439 1440 1441 1442 1444
1557 1556 1556 1557 1558 1559 1559 1559 1559 1559 1559 1559 1558 1558 1557 1556 1554 1553 1551 1550 1548 1547 1545 1543 1541 1539 1537 1534 1532 1529 1527 1524 1522 1519 1517 1514 1511 1508 1505 1502 1499 1496 1493 1490 1486 1483 1479 1476 1474 1471 1469 1466 1463 1459 1456 1453 1451 1449 1448 1446 1444 1442 1439 1436 1433 1431 1430 1428 1426 1425 1425 1425 1425 1425 1425 1426 1428 1429 1430 1432 1433 1434 1435 1435 1437
1558 1558 1558 1559 1560 1560 1561 1561 1561 1560 1560 1560 1559 1559 1558 1556 1555 1553 1552 1551 1550 1548 1546 1544 1542 1540 1537 1535 1532 1529 1527 1524 1522 1519 1516 1513 1510 1508 1505 1502 1500 1496 1493 1490 1486 1482 1478 1474 1471 1468 1466 1463 1460 1456 1452 1448 1445 1443 1441 1439 1438 1436 1435 1432 1429 1427 1425 1423 1421 1419 1420 1421 1420 1420 1421 1422 1423 1424 1426 1426 1427 1428 1430 1430 1431
1559 1559 1560 1561 1561 1562 1562 1562 1562 1561 1561 1561 1560 1560 1558 1557 1556 1554 1553 1552 1550 1548 1546 1544 1542 1540 1537 1535 1532 1529 1526 1524 1521 1518 1515 1513 1510 1507 1505 1502 1500 1497 1494 1490 1486 1482 1478 1474 1470 1466 1464 1461 1458 1454 1450 1445 1441 1437 1434 1432 1430 1429 1428 1426 1425 1423 1420 1418 1415 1413 1414 1416 1415 1415 1417 1418 1417 1418 1419 1420 1421 1423 1424 1426 1429
1560 1561 1561 1562 1563 1563 1563 1563 1563 1562 1562 1562 1561 1560 1559 1558 1557 1555 1554 1552 1551 1549 1547 1545 1543 1540 1538 1535 1532 1529 1526 1523 1520 1517 1515 1512 1510 1507 1504 1502 1499 1497 1494 1490 1487 1483 1479 1475 1470 1467 1463 1460 1456 1453 1448 1443 1438 1434 1429 1426 1423 1421 1420 1419 1418 1416 1413 1411 1409 1407 1407 1409 1409 1410 1412 1412 1411 1412 1413 1415 1417 1420 1422 1424 1427
1562 1562 1563 1563 1564 1564 1564 1564 1563 1563 1563 1562 1562 1561 1560 1559 1558 1556 1555 1553 1552 1550 1548 1546 1543 1541 1538 1535 1532 1529 1526 1523 1520 1517 1514 1512 1509 1506 1504 1501 1499 1496 1493 1490 1486 1483 1479 1474 1470 1467 1463 1459 1455 1451 1447 1441 1436 1431 1426 1421 1417 1414 1412 1412 1410 1408 1405 1403 1401 1400 1400 1402 1403 1404 1406 1407 1407 1408 1410 1411 1413 1416 1419 1420 1421
1563 1563 1564 1564 1565 1565 1565 1565 1564 1564 1564 1563 1563 1562 1561 1560 1558 1557 1556 1554 1552 1550 1548 1546 1543 1541 1538 1535 1532 1529 1526 1523 1520 1517 1514 1511 1508 1506 1503 1501 1498 1495 1492 1489 1486 1482 1479 1475 1470 1466 1462 1458 1454 1449 1445 1439 1433 1428 1423 1417 1412 1407 1404 1404 1401 1399 1397 1395 1393 1393 1393 1395 1396 1398 1400 1401 1403 1405 1406 1406 1406 1409 1412 1414 1414
1564 1564 1565 1565 1566 1566 1566 1565 1565 1565 1565 1564 1563 1563 1562 1561 1559 1558 1557 1555 1553 1551 1549 1547 1544 1541 1538 1535 1533 1530 1527 1524 1521 1518 1515 1512 1508 1506 1503 1500 1498 1495 1492 1489 1486 1482 1478 1475 1471 1466 1461 1457 1453 1448 1443 1437 1431 1426 1421 1414 1409 1403 1399 1396 1392 1389 1388 1387 1385 1385 1386 1388 1390 1391 1393 1395 1397 1400 1400 1399 1400 1403 1405 1406 1408
1564 1565 1566 1566 1566 1566 1566 1566 1566 1566 1565 1565 1564 1563 1562 1561 1560 1559 1557 1556 1554 1552 1550 1548 1545 1542 1539 1536 1534 1531 1528 1525 1521 1518 1515 1513 1509 1506 1503 1500 1497 1494 1491 1488 1485 1482 1478 1474 1470 1466 1462 1457 1452 1447 1442 1437 1430 1425 1420 1413 1407 1400 1395 1390 1385 1381 1379 1377 1377 1377 1378 1381 1383 1385 1386 1388 1391 1393 1393 1394 1396 1397 1397 1399 1402
1565 1566 1567 1567 1567 1567 1567 1567 1567 1567 1566 1566 1565 1564 1563 1562 1561 1560 1558 1557 1555 1553 1551 1549 1546 1543 1541 1538 1534 1531 1528 1525 1522 1519 1516 1514 1511 1507 1504 1500 1497 1494 1491 1488 1484 1481 1477 1473 1469 1465 1461 1457 1452 1446 1441 1436 1430 1424 1419 1413 1406 1398 1392 1386 1381 1377 1373 1370 1369 1370 1371 1374 1377 1378 1380 1382 1384 1386 1387 1389 1391 1391 1391 1393 1396
1566 1566 1567 1567 1567 1567 1567 1567 1567 1567 1567 1566 1565 1565 1563 1562 1561 1560 1559 1557 1556 1554 1552 1550 1547 1544 1541 1539 1536 1532 1529 1526 1523 1520 1517 1515 1512 1508 1505 1502 1499 1496 1493 1489 1485 1481 1477 1473 1469 1465 1461 1456 1451 1446 1441 1435 1430 1424 1418 1412 1406 1398 1391 1384 1378 1373 1368 1365 1364 1364 1366 1369 1371 1373 1374 1376 1378 1380 1382 1384 1385 1386 1387 1389 1391
1566 1566 1567 1567 1567 1568 1568 1568 1568 1568 1567 1567 1566 1565 1564 1563 1562 1560 1559 1558 1556 1554 1552 1550 1548 1545 1542 1539 1536 1533 1530 1527 1524 1521 1518 1515 1512 1509 1507 1504 1501 1498 1494 1490 1486 1482 1478 1474 1470 1465 1461 1457 1452 1446 1441 1435 1429 1423 1417 1411 1405 1397 1390 1382 1376 1370 1365 1362 1361 1361 1362 1364 1366 1368 1370 1371 1373 1375 1376 1378 1381 1382 1383 1385 1387
1566 1567 1567 1567 1568 1568 1568 1568 1568 1568 1568 1567 1566 1565 1564 1563 1562 1561 1560 1558 1556 1555 1552 1550 1548 1545 1543 1540 1537 1534 1531 1528 1525 1522 1519 1516 1513 1510 1508 1506 1503 1499 1496 1492 1488 1484 1480 1476 1471 1467 1462 1457 1452 1447 1441 1435 1429 1423 1417 1410 1403 1395 1388 1381 1375 1370 1365 1362 1359 1359 1360 1360 1362 1363 1365 1367 1369 1370 1372 1374 1376 1378 1379 1381 1383
1566 1566 1567 1567 1568 1568 1568 1568 1568 1568 1568 1567 1566 1566 1564 1563 1562 1561 1560 1558 1557 1555 1552 1550 1548 1545 1543 1540 1537 1535 1532 1528 1525 1522 1519 1517 1514 1511 1509 1507 1504 1501 1498 1494 1490 1486 1481 1477 1473 1468 1463 1458 1452 1447 1442 1436 1430 1423 1416 1410 1403 1395 1388 1381 1376 1371 1366 1362 1359 1358 1357 1358 1359 1360 1362 1364 1365 1366 1368 1370 1372 1374 1376 1377 1379
1565 1566 1567 1567 1568 1568 1568 1569 1568 1568 1568 1567 1566 1566 1565 1564 1562 1561 1560 1558 1557 1555 1552 1550 1548 1546 1543 1540 1538 1535 1532 1529 1526 1523 1520 1517 1515 1512 1510 1508 1505 1502 1499 1495 1492 1487 1483 1479 1475 1470 1464 1458 1453 1447 1442 1436 1431 1424 1418 1411 1404 1398 1390 1383 1378 1373 1368 1364 1361 1358 1357 1357 1358 1359 1360 1361 1362 1363 1365 1367 1368 1370 1372 1374 1376
1565 1566 1567 1567 1568 1568 1568 1569 1568 1568 1568 1567 1566 1566 1565 1564 1563 1561 1560 1559 1557 1555 1553 1551 1548 1546 1543 1541 1538 1535 1533 1530 1526 1523 1520 1518 1516 1514 1512 1509 1507 1504 1500 1496 1492 1488 1484 1479 1475 1470 1465 1460 1454 1449 1443 1438 1432 1426 1419 1413 1407 1401 1394 1387 1381 1376 1372 1368 1365 1361 1359 1358 1358 1359 1359 1359 1360 1361 1363 1365 1366 1367 1369 1371 1373
1565 1566 1567 1567 1568 1568 1568 1568 1568 1568 1568 1567 1567 1566 1565 1564 1563 1561 1560 1559 1557 1555 1553 1551 1549 1546 1544 1541 1539 1536 1533 1530 1527 1524 1521 1519 1517 1515 1513 1510 1507 1504 1500 1496 1492 1488 1484 1480 1476 1471 1466 1461 1456 1450 1445 1439 1433 1427 1421 1416 1411 1405 1399 1393 1387 1381 1376 1372 1369 1365 1363 1361 1360 1360 1360 1359 1359 1360 1363 1364 1365 1366 1367 1369 1371
1565 1566 1566 1567 1567 1568 1568 1568 1568 1568 1568 1567 1566 1566 1565 1564 1563 1562 1560 1559 1557 1555 1553 1551 1549 1546 1544 1542 1539 1536 1534 1531 1527 1525 1522 1520 1518 1516 1513 1510 1507 1504 1501 1497 1493 1489 1485 1481 1476 1471 1465 1460 1455 1450 1446 1441 1435 1430 1425 1420 1414 1409 1403 1398 1392 1386 1381 1377 1373 1369 1366 1364 1363 1362 1362 1362 1362 1363 1365 1367 1367 1368 1368 1367 1368
1564 1565 1566 1566 1567 1567 1568 1568 1568 1568 1567 1567 1566 1566 1565 1564 1563 1561 1560 1559 1557 1555 1554 1552 1550 1547 1545 1542 1539 1537 1534 1532 1529 1527 1525 1523 1520 1518 1515 1512 1509 1506 1503 1500 1495 1490 1485 1481 1476 1471 1466 1461 1457 1453 1448 1443 1438 1433 1428 1423 1418 1412 1406 1401 1396 1391 1387 1383 1378 1374 1371 1368 1366 1366 1366 1367 1367 1368 1370 1370 1370 1371 1370 1368 1369
1564 1564 1565 1566 1566 1566 1567 1567 1567 1568 1567 1567 1566 1565 1565 1564 1563 1561 1560 1559 1557 1556 1554 1552 1550 1548 1546 1544 1541 1538 1536 1533 1532 1530 1528 1525 1522 1520 1517 1514 1512 1509 1505 1501 1496 1491 1487 1482 1478 1474 1470 1466 1461 1457 1452 1447 1442 1437 1432 1427 1422 1417 1411 1406 1401 1397 1393 1389 1385 1381 1377 1374 1373 1373 1373 1373 1374 1374 1374 1374 1373 1374 1373 1372 1374
1563 1563 1564 1565 1565 1566 1567 1567 1567 1567 1567 1566 1566 1565 1564 1564 1563 1561 1560 1559 1557 1556 1554 1552 1551 1549 1547 1545 1542 1540 1538 1536 1534 1531 1529 1526 1524 1521 1518 1516 1513 1510 1506 1502 1497 1493 1489 1486 1482 1478 1474 1470 1466 1462 1458 1453 1448 1443 1438 1433 1427 1422 1417 1412 1407 1403 1399 1395 1392 1388 1385 1383 1382 1381 1381 1381 1380 1379 1379 1378 1378 1377 1377 1377 1378
1562 1563 1563 1564 1565 1565 1566 1566 1566 1566 1566 1566 1565 1565 1564 1563 1562 1561 1560 1559 1557 1556 1554 1553 1551 1549 1547 1545 1543 1541 1539 1536 1534 1532 1530 1527 1525 1522 1520 1517 1514 1511 1508 1503 1499 1496 1492 1489 1485 1482 1478 1474 1470 1467 1462 1458 1453 1449 1443 1438 1433 1429 1424 1419 1415 1410 1406 1402 1399 1396 1394 1392 1390 1389 1388 1387 1386 1386 1385 1385 1384 1383 1383 1383 1383
1561 1562 1563 1563 1564 1565 1565 1565 1566 1566 1565 1565 1565 1564 1564 1563 1562 1561 1560 1559 1557 1556 1554 1553 1552 1550 1548 1546 1543 1541 1539 1537 1535 1533 1530 1528 1526 1523 1521 1518 1515 1512 1508 1504 1501 1498 1495 1492 1489 1485 1482 1478 1475 1471 1467 1463 1458 1454 1450 1445 1441 1436 1432 1427 1422 1417 1413 1410 1407 1404 1402 1400 1398 1396 1394 1393 1392 1392 1392 1391 1391 1390 1388 1388 1389
1560 1561 1562 1563 1564 1564 1564 1565 1565 1565 1565 1565 1564 1564 1563 1563 1562 1561 1560 1559 1557 1556 1555 1553 1552 1550 1548 1546 1544 1542 1540 1538 1535 1533 1531 1529 1526 1524 1522 1520 1516 1513 1509 1506 1503 1500 1497 1495 1492 1489 1485 1482 1479 1475 1471 1467 1463 1459 1455 1451 1447 1443 1438 1434 1429 1424 1420 1417 1414 1412 1410 1408 1405 1403 1401 1400 1400 1399 1398 1397 1397 1396 1394 1394 1395
1559 1560 1561 1562 1563 1564 1564 1564 1564 1564 1564 1564 1564 1563 1563 1562 1561 1561 1560 1558 1557 1556 1555 1553 1552 1550 1549 1547 1545 1543 1541 1538 1536 1534 1531 1529 1527 1525 1523 1519 1516 1513 1510 1507 1505 1503 1500 1497 1494 1492 1489 1486 1482 1479 1475 1471 1468 1464 1460 1456 1452 1448 1444 1439 1435 1432 1428 1425 1422 1420 1418 1415 1412 1410 1409 1408 1407 1406 1405 1404 1404 1403 1403 1402 1401
1559 1560 1561 1562 1563 1563 1563 1563 1564 1564 1564 1563 1563 1563 1562 1562 1561 1560 1559 1558 1557 1556 1555 1553 1552 1550 1549 1547 1545 1543 1541 1539 1537 1534 1532 1530 1527 1525 1522 1519 1516 1514 1511 1509 1507 1504 1502 1500 1497 1494 1491 1488 1485 1482 1479 1475 1472 1469 1465 1461 1458 1454 1449 1445 1442 1438 1435 1432 1430 1427 1424 1421 1419 1418 1416 1415 1414 1413 1413 1412 1411 1411 1411 1410 1409
1558 1559 1560 1561 1562 1562 1563 1563 1563 1563 1563 1563 1562 1562 1562 1561 1561 1560 1559 1558 1557 1555 1554 1553 1552 1551 1549 1547 1546 1544 1542 1540 1538 1536 1533 1531 1528 1526 1523 1520 1518 1516 1513 1511 1508 1506 1504 1501 1499 1496 1494 1491 1488 1485 1482 1479 1476 1473 1469 1466 1462 1459 1455 1452 1449 1445 1442 1439 1436 1434 1431 1429 1427 1425 1423 1422 1421 1420 1419 1419 1418 1418 1418 1418 1417
1558 1559 1560 1561 1561 1562 1562 1562 1562 1562 1562 1562 1562 1562 1561 1561 1560 1559 1559 1558 1556 1555 1554 1553 1552 1550 1549 1547 1546 1544 1542 1541 1539 1537 1534 1532 1529 1526 1524 1522 1519 1517 1515 1513 1510 1508 1505 1503 1501 1498 1496 1493 1490 1488 1485 1482 1479 1476 1473 1470 1467 1464 1461 1458 1455 1452 1449 1446 1443 1441 1439 1437 1434 1433 1431 1429 1428 1427 1426 1425 1425 1424 1425 1425 1424
1557 1558 1559 1560 1560 1561 1561 1561 1561 1561 1561 1561 1561 1561 1560 1560 1559 1559 1558 1557 1556 1555 1554 1552 1551 1550 1548 1547 1545 1544 1542 1541 1538 1536 1534 1532 1530 1527 1525 1523 1521 1518 1516 1514 1512 1509 1507 1505 1503 1500 1498 1495 1493 1490 1487 1484 1482 1479 1476 1474 1471 1468 1465 1462 1460 1457 1455 1452 1450 1448 1446 1443 1442 1440 1438 1436 1435 1434 1433 1432 1432 1431 1431 1431 1431
1557 1558 1559 1559 1560 1560 1560 1560 1561 1560 1560 1560 1560 1560 1560 1559 1559 1558 1558 1557 1556 1554 1553 1552 1551 1549 1548 1547 1545 1544 1542 1540 1538 1537 1535 1533 1531 1528 1526 1524 1522 1519 1517 1515 1513 1511 1509 1506 1504 1502 1500 1497 1495 1492 1489 1487 1484 1481 1479 1477 1474 1472 1469 1467 1464 1462 1460 1458 1456 1454 1452 1450 1448 1446 1444 1443 1442 1441 1440 1439 1439 1438 1437 1437 1437
1556 1557 1558 1558 1559 1559 1559 1560 1560 1560 1559 1559 1559 1559 1559 1559 1558 1558 1557 1556 1555 1554 1552 1551 1550 1549 1548 1546 1545 1543 1542 1540 1539 1537 1535 1533 1532 1529 1527 1525 1523 1520 1518 1516 1514 1512 1510 1508 1506 1504 1501 1499 1497 1494 1492 1489 1486 1484 1481 1479 1477 1475 1473 1471 1468 1467 1465 1463 1461 1459 1457 1456 1454 1452 1451 1450 1449 1448 1446 1445 1445 1444 1443 1443 1443
1555 1556 1557 1557 1558 1558 1559 1559 1559 1559 1558 1558 1558 1558 1558 1558 1557 1557 1556 1555 1554 1553 1552 1551 1550 1549 1547 1546 1545 1543 1542 1540 1539 1538 1536 1534 1532 1530 1528 1526 1524 1522 1520 1517 1515 1513 1511 1509 1507 1505 1503 1501 1499 1496 1493 1491 1488 1486 1484 1481 1479 1477 1476 1474 1472 1470 1468 1466 1465 1463 1462 1460 1459 1458 1457 1455 1454 1453 1452 1451 1450 1450 1449 1449 1449
1554 1555 1556 1556 1557 1557 1557 1558 1558 1557 1557 1557 1557 1557 1557 1557 1556 1556 1555 1554 1554 1553 1552 1550 1549 1548 1547 1546 1544 1543 1542 1540 1539 1538 1536 1535 1533 1531 1529 1527 1525 1523 1521 1519 1516 1514 1513 1511 1509 1507 1505 1502 1500 1498 1495 1493 1490 1488 1486 1484 1482 1480 1478 1476 1475 1473 1471 1470 1468 1467 1465 1464 1463 1462 1461 1460 1458 1458 1457 1456 1455 1455 1454 1454 1454
1553 1554 1554 1555 1555 1556 1556 1556 1556 1556 1556 1556 1556 1556 1556 1556 1555 1555 1554 1553 1553 1552 1551 1550 1549 1548 1547 1545 1544 1543 1541 1540 1539 1538 1536 1535 1533 1532 1530 1528 1526 1524 1522 1520 1518 1516 1514 1512 1510 1508 1506 1504 1502 1500 1498 1495 1493 1490 1488 1486 1484 1482 1480 1479 1477 1476 1475 1473 1472 1471 1469 1468 1467 1465 1464 1463 1462 1461 1460 1460 1459 1459 1459 1459 1458
1551 1552 1553 1553 1554 1554 1554 1555 1555 1555 1555 1555 1555 1555 1555 1554 1554 1553 1553 1552 1552 1551 1550 1549 1548 1547 1546 1545 1544 1542 1541 1540 1538 1537 1536 1535 1533 1532 1530 1528 1526 1525 1523 1521 1519 1517 1515 1513 1511 1510 1508 1506 1504 1502 1500 1498 1495 1493 1490 1488 1486 1484 1482 1481 1480 1478 1478 1477 1475 1474 1473 1471 1470 1469 1468 1467 1466 1465 1464 1463 1463 1463 1462 1462 1462
1549 1550 1551 1551 1552 1552 1553 1553 1553 1553 1553 1553 1553 1553 1553 1553 1553 1552 1552 1551 1551 1550 1549 1548 1548 1546 1545 1544 1543 1542 1541 1539 1538 1537 1535 1534 1533 1532 1530 1528 1527 1525 1523 1521 1520 1518 1516 1514 1512 1511 1509 1507 1505 1503 1501 1499 1497 1495 1493 1491 1489 1487 1485 1483 1482 1481 1480 1479 1478 1477 1476 1475 1474 1473 1471 1470 1469 1468 1467 1467 1466 1466 1466 1466 1466
1547 1548 1549 1549 1550 1551 1551 1551 1552 1552 1552 1552 1552 1552 1552 1552 1551 1551 1550 1550 1549 1549 1548 1547 1547 1546 1545 1543 1542 1541 1540 1539 1537 1536 1535 1534 1532 1531 1530 1528 1527 1525 1524 1522 1520 1518 1517 1515 1513 1512 1510 1508 1506 1505 1503 1501 1499 1497 1495 1493 1491 1489 1487 1485 1484 1483 1482 1481 1480 1479 1478 1477 1477 1476 1475 1474 1473 1472 1471 1470 1470 1470 1469 1469 1469
1546 1546 1547 1547 1548 1549 1549 1549 1550 1550 1550 1550 1550 1550 1550 1550 1550 1549 1549 1549 1548 1547 1547 1546 1545 1544 1544 1542 1541 1540 1539 1538 1537 1535 1534 1533 1532 1530 1529 1528 1527 1525 1524 1522 1521 1519 1517 1516 1514 1512 1511 1509 1507 1506 1504 1502 1500 1499 1497 1495 1493 1491 1489 1487 1486 1485 1483 1482 1482 1481 1480 1479 1479 1478 1477 1476 1475 1474 1474 1473 1473 1473 1473 1472 1472
1544 1544 1545 1545 1546 1546 1547 1547 1548 1548 1548 1548 1548 1548 1548 1548 1548 1548 1547 1547 1546 1546 1546 1545 1544 1543 1542 1541 1540 1539 1538 1537 1536 1534 1533 1532 1531 1530 1528 1527 1526 1525 1523 1522 1521 1519 1518 1516 1514 1513 1511 1510 1508 1506 1505 1503 1502 1500 1498 1496 1494 1493 1491 1489 1488 1486 1485 1484 1483 1482 1481 1481 1480 1480 1479 1478 1478 1477 1476 1476 1476 1475 1475 1475 1475
1542 1542 1543 1543 1544 1544 1545 1545 1545 1546 1546 1546 1546 1546 1546 1546 1546 1546 1545 1545 1545 1544 1544 1543 1543 1542 1541 1540 1539 1538 1537 1536 1534 1533 1532 1531 1530 1529 1528 1526 1525 1524 1523 1522 1520 1519 1518 1516 1515 1513 1512 1510 1509 1507 1505 1504 1502 1501 1499 1497 1496 1494 1493 1491 1489 1488 1486 1485 1484 1483 1482 1482 1481 1481 1480 1480 1479 1479 1478 1478 1477 1477 1477 1477 1477
1539 1540 1540 1541 1541 1542 1542 1542 1543 1543 1543 1543 1543 1544 1544 1544 1543 1543 1543 1543 1543 1542 1542 1541 1541 1540 1539 1538 1537 1536 1535 1534 1533 1532 1531 1530 1529 1528 1527 1526 1524 1523 1522 1521 1520 1518 1517 1516 1515 1513 1512 1510 1509 1508 1506 1504 1503 1501 1500 1498 1497 1495 1494 1492 1490 1489 1487 1486 1485 1484 1483 1482 1482 1481 1481 1480 1480 1480 1479 1479 1479 1478 1478 1478 1478
Wind_Speed
4 4 4 4 4 4 5 5 6 6 7 7 7 8 8 9 10 11 11 12 13 13 14 15 15 16 17 18 19 21 22 23 24 24 24 25 26 26 27 28 28 28 28 27 27 27 26 25 24 24 24 26 26 24 23 21 21 22 22 23 25 26 28 31 35 37 35 34 32 29 29 31 31 30 28 29 30 30 32 34 36 37 37 37 36
4 4 4 4 4 5 6 7 8 8 8 8 9 9 10 11 11 11 11 12 13 14 15 16 16 17 18 19 20 21 22 24 25 26 26 26 26 27 28 29 29 30 30 30 30 29 29 27 26 24 24 24 24 24 24 23 22 22 22 23 24 26 27 29 33 36 37 37 34 30 30 33 36 34 31 30 30 31 32 33 36 38 39 39 38
3 4 5 6 7 8 9 10 10 9 10 10 11 11 12 12 12 13 13 14 14 15 16 17 18 19 20 21 22 23 23 25 26 27 28 28 29 29 29 30 31 31 31 31 32 31 31 31 29 27 25 24 23 22 23 25 24 24 24 25 25 25 25 28 31 35 37 38 37 33 32 35 37 36 33 32 31 31 32 33 35 39 41 41 40
4 6 7 9 10 10 11 11 11 11 12 12 13 13 13 14 14 15 15 16 17 18 18 19 20 21 22 23 24 25 25 26 26 27 28 29 30 30 31 31 31 32 32 32 32 32 32 32 31 30 28 25 24 22 21 24 26 26 26 27 28 26 24 25 28 32 34 36 38 37 34 35 38 37 36 36 34 34 33 33 36 40 42 42 42
7 8 10 11 11 12 12 13 13 13 14 14 15 15 15 15 16 16 17 18 19 19 20 21 22 23 23 24 25 26 26 27 27 27 28 28 29 30 31 31 32 32 31 31 31 31 31 31 31 31 30 28 26 24 23 24 26 29 29 29 29 29 27 25 26 29 33 35 36 37 37 38 38 37 38 38 37 36 36 36 36 38 39 41 43
9 10 10 11 13 13 14 14 14 15 15 15 15 16 16 16 17 18 18 19 20 20 21 22 23 24 24 25 25 26 27 27 27 28 28 29 29 30 30 30 31 31 31 31 30 30 30 30 29 28 28 27 26 26 26 26 27 29 32 33 32 32 32 30 27 27 31 35 36 36 37 39 40 38 38 39 38 38 38 37 37 36 37 40 43
10 11 11 13 14 15 16 16 15 16 16 16 16 16 17 17 18 18 19 19 20 21 22 23 23 24 24 25 25 26 26 27 27 28 28 29 29 30 31 31 31 31 31 30 30 30 30 30 29 28 26 26 25 26 27 28 28 28 30 34 36 35 35 35 33 29 29 33 37 37 36 38 42 41 38 37 38 37 38 38 39 39 39 40 42
11 12 13 14 16 17 17 16 16 16 17 17 17 17 17 17 18 19 19 20 21 22 22 22 22 23 23 24 25 25 26 27 28 29 29 29 29 30 31 32 33 32 32 31 30 30 30 30 29 29 27 25 25 25 26 27 29 29 29 31 35 38 38 38 38 35 31 30 33 37 37 37 41 42 38 36 37 39 40 39 40 41 41 41 42
13 14 15 16 17 17 17 16 17 17 17 17 17 17 17 18 18 19 19 20 21 21 21 21 22 22 23 24 25 26 28 29 30 31 31 30 29 30 31 32 33 34 34 34 33 32 31 30 29 28 27 26 25 25 25 26 28 30 31 30 31 35 38 39 39 38 36 32 30 32 36 39 41 42 40 38 39 41 40 39 40 41 41 42 44
14 16 16 17 17 17 17 17 17 16 16 17 16 16 17 17 17 18 19 20 20 21 22 22 24 25 26 26 27 28 29 30 30 30 31 31 30 29 30 32 33 35 36 36 36 35 34 32 30 28 28 28 28 28 27 26 26 28 30 30 29 31 34 38 39 38 38 36 32 30 34 38 40 42 42 41 40 40 40 40 41 42 42 43 45
15 17 17 18 17 17 17 17 16 16 16 16 15 15 16 16 17 18 19 21 22 23 23 24 26 27 27 28 28 29 30 30 30 30 30 30 30 29 30 31 33 34 36 37 38 38 37 36 34 32 29 28 30 31 31 30 29 28 28 29 29 29 30 34 37 38 38 38 37 33 33 36 39 41 42 42 41 41 40 41 42 43 45 45 45
16 18 18 18 17 17 17 16 16 16 15 15 14 15 15 16 18 20 22 23 23 24 25 26 27 28 29 29 30 31 31 31 30 30 30 30 29 29 29 30 32 34 36 37 38 39 40 40 39 37 34 32 32 33 35 35 34 32 30 29 29 29 29 30 34 36 36 37 39 39 36 35 37 40 42 42 42 40 38 40 43 45 47 46 45
18 18 19 18 17 17 16 16 16 15 15 14 14 15 16 17 20 22 23 23 23 24 26 27 28 30 31 32 33 33 33 33 31 31 31 30 29 28 28 30 32 33 35 37 38 39 40 41 41 40 39 38 37 37 38 39 38 37 35 32 30 30 30 30 31 33 35 35 38 41 41 37 36 38 41 42 42 40 39 41 44 45 46 48 48
19 19 18 17 17 17 16 16 15 15 14 14 15 16 17 19 21 22 22 23 24 26 27 29 30 31 32 33 34 35 35 34 33 32 31 31 30 28 28 29 31 33 35 36 37 39 40 41 42 41 40 39 39 40 41 42 42 41 39 37 34 32 31 31 31 32 33 34 36 39 41 41 39 37 37 40 43 43 42 42 44 45 45 45 45
20 19 19 18 17 16 15 15 15 15 15 15 15 17 18 19 20 21 23 24 26 27 28 29 30 32 33 34 34 35 36 36 35 34 33 32 30 29 28 29 31 32 34 36 37 38 39 40 41 41 40 39 39 40 41 43 45 45 44 42 39 36 33 31 30 31 34 35 36 38 38 39 41 39 35 37 41 43 43 44 42 40 39 40 42
21 20 19 19 17 16 16 16 16 16 16 16 17 17 17 18 20 21 23 24 25 27 28 30 31 32 33 34 35 36 37 36 36 35 34 33 31 30 29 30 31 33 35 36 38 39 39 40 39 39 40 40 40 39 40 42 44 46 46 46 44 40 35 31 30 30 33 35 37 38 38 36 38 38 36 36 38 39 41 42 39 36 38 41 44
21 20 20 19 18 17 17 17 17 17 17 17 17 17 17 18 19 20 22 23 25 26 28 30 31 33 34 35 36 37 37 37 36 35 34 33 33 32 31 31 32 34 36 37 38 39 39 39 38 38 39 39 40 40 39 40 42 43 45 47 47 45 39 33 31 31 31 33 36 38 38 36 35 36 37 37 37 36 38 42 42 40 42 45 46
20 19 19 18 18 18 17 17 18 18 18 18 17 17 17 18 19 20 21 23 24 26 28 29 31 33 34 36 37 37 37 37 36 35 33 33 34 34 34 34 34 36 37 37 38 39 39 38 36 37 37 38 38 38 37 38 39 40 42 43 46 47 44 39 36 34 31 32 33 35 37 36 34 34 36 36 35 35 37 42 44 44 46 48 48
19 18 17 17 17 17 17 17 18 18 18 17 17 18 18 18 19 19 20 22 23 25 26 28 30 32 34 36 37 37 38 37 36 34 33 34 34 35 36 36 36 37 38 38 38 39 38 38 37 36 36 36 37 37 35 35 36 37 38 39 41 45 46 44 43 40 34 32 32 32 33 33 33 33 33 33 33 34 36 39 43 47 50 50 49
17 17 16 16 15 15 16 16 17 17 17 17 17 17 18 18 18 18 19 20 22 23 25 27 30 32 34 35 37 38 39 38 36 34 33 34 35 36 37 37 38 38 38 38 38 39 38 38 38 37 36 36 36 36 35 33 34 34 34 34 36 39 43 46 46 43 38 32 29 29 30 30 30 31 30 29 30 33 35 35 39 48 52 50 49
17 16 15 14 14 14 14 14 15 16 16 16 16 16 17 17 17 17 18 19 20 21 24 26 29 31 33 35 36 38 39 38 36 34 33 34 35 36 36 38 38 38 37 37 37 38 38 38 38 37 36 36 36 36 35 33 33 33 33 31 31 32 35 38 39 40 37 30 25 25 25 26 27 27 26 26 28 31 33 33 36 45 49 48 47
15 14 13 13 12 12 12 12 13 14 15 15 15 15 16 16 16 17 17 18 19 21 23 26 28 30 32 34 36 37 39 38 36 35 34 35 36 36 36 36 37 37 37 37 36 36 37 37 38 37 37 36 36 37 37 36 34 34 33 30 28 27 27 27 27 30 30 23 17 17 18 20 21 21 22 24 26 28 30 31 33 40 45 46 45
14 14 12 11 10 10 11 11 11 12 13 13 14 15 15 16 16 16 17 18 20 22 24 26 28 30 32 34 35 37 39 39 37 35 35 35 36 36 35 34 35 36 36 35 36 36 37 37 37 37 37 37 37 37 38 38 37 36 35 32 29 26 25 24 21 19 17 12 9 11 14 16 17 18 20 21 23 25 27 27 29 37 43 46 45
14 13 12 10 9 9 9 10 10 10 11 12 13 14 15 15 16 16 18 19 20 22 25 27 29 31 33 34 35 36 38 39 38 36 35 35 36 37 35 33 34 35 35 35 35 35 37 37 37 38 38 39 39 38 39 40 40 39 37 35 32 30 28 28 26 21 14 8 4 5 9 12 14 16 18 20 21 21 23 24 26 33 41 45 45
14 12 10 9 8 7 8 8 8 8 9 11 13 14 15 15 16 16 17 19 21 23 25 27 29 31 33 34 35 36 37 39 39 38 36 35 36 36 34 34 34 35 36 37 37 36 36 37 38 38 40 41 42 42 41 41 42 42 40 38 36 35 35 34 32 29 23 18 14 8 2 3 6 9 13 16 18 18 20 23 26 30 37 41 42
14 11 9 8 7 6 7 7 7 7 8 10 11 13 14 14 15 16 17 18 20 22 24 26 28 30 33 34 34 34 35 38 39 38 36 35 36 35 33 34 35 36 37 39 38 38 37 38 39 41 42 44 45 45 43 42 42 43 43 42 39 38 39 39 38 37 34 29 24 18 13 8 4 2 4 7 9 11 15 20 23 26 31 35 35
14 11 9 8 7 6 6 5 5 6 8 9 11 12 13 13 14 15 16 17 19 21 23 25 28 30 32 34 34 33 34 36 38 38 35 34 34 33 32 33 35 37 38 39 40 40 39 40 41 43 44 46 46 47 46 45 45 45 45 45 43 40 39 39 40 40 40 38 33 27 20 15 11 10 8 6 4 2 4 10 14 17 23 28 29
12 10 9 8 7 6 5 3 3 5 7 9 10 10 11 12 13 15 16 17 18 20 22 24 27 29 31 33 33 33 33 34 36 36 34 32 32 32 32 32 34 37 38 39 40 41 41 41 42 45 47 48 49 50 50 49 48 46 45 45 45 43 40 39 40 40 41 41 40 36 30 25 23 21 18 16 16 13 8 4 1 5 9 15 18
12 10 9 8 6 6 5 3 2 4 6 8 8 9 10 11 12 14 15 16 17 19 21 23 25 26 28 31 33 33 31 31 32 32 31 29 29 30 31 31 31 34 35 36 38 40 42 44 45 47 48 49 50 51 52 52 50 48 47 46 45 45 44 42 41 41 41 41 42 42 40 37 33 28 23 22 22 19 15 13 11 7 5 3 8
11 10 9 7 6 6 5 4 1 3 6 7 7 7 9 10 12 13 15 15 16 18 19 21 23 25 26 28 30 31 29 27 27 28 29 29 28 27 28 29 29 31 33 34 37 40 43 45 46 47 48 49 50 51 52 52 51 50 48 47 46 46 46 44 42 40 40 40 42 43 43 42 39 34 30 28 25 20 16 15 13 11 11 10 10
11 10 9 7 6 6 5 4 2 3 5 5 6 7 8 9 11 13 14 15 16 17 17 19 21 23 25 27 28 28 27 25 25 25 26 27 27 26 26 27 28 30 32 34 36 39 42 43 44 44 45 47 48 50 51 51 51 50 49 48 47 46 46 45 43 40 38 39 40 40 41 41 40 38 37 34 31 28 24 22 21 19 17 16 18
10 9 9 7 6 4 4 4 3 2 3 4 6 7 8 9 10 12 14 14 15 16 17 17 19 21 24 26 27 27 27 26 25 25 25 25 25 25 25 26 27 29 31 34 36 38 39 41 41 41 43 44 46 47 49 50 50 50 49 49 47 46 46 46 44 42 40 40 40 40 40 40 39 38 38 37 36 34 31 29 29 29 27 23 23
10 9 9 8 5 4 4 4 3 2 3 5 6 6 7 9 10 12 13 14 15 16 16 16 17 19 22 24 26 27 27 26 25 25 25 24 24 24 25 25 26 28 31 34 36 37 38 39 38 38 40 41 43 44 45 47 48 48 48 48 47 46 45 44 44 44 43 42 42 42 41 40 39 39 39 38 37 36 34 31 30 30 30 28 26
10 9 9 8 5 5 5 4 3 3 4 5 5 5 6 8 10 11 12 13 14 15 15 16 17 18 20 22 24 25 26 25 25 25 25 25 24 24 24 24 26 29 31 33 34 35 36 36 36 36 37 39 40 41 42 44 45 45 46 46 46 45 45 44 43 44 44 43 42 42 41 41 40 39 39 38 37 37 36 35 32 30 30 30 28
11 10 10 8 7 6 5 4 4 4 3 3 4 5 5 7 9 10 12 13 13 13 14 15 16 17 18 20 22 24 24 25 25 24 24 24 24 23 23 25 28 30 31 32 32 33 33 34 34 34 35 36 37 39 40 41 42 43 43 44 45 45 45 44 44 43 43 43 43 43 42 41 41 40 39 38 37 36 35 35 34 33 31 30 31
11 11 10 9 7 6 5 4 3 3 2 2 3 3 4 6 7 9 11 12 12 12 13 14 16 17 17 18 19 21 23 24 24 24 24 25 24 24 25 27 29 30 31 32 32 32 31 31 31 31 33 34 34 36 37 38 38 39 40 41 43 43 43 43 43 43 42 41 41 42 42 42 41 39 38 38 37 36 34 33 32 32 31 31 32
11 11 10 8 7 6 5 4 2 1 1 1 1 3 4 5 7 8 9 11 12 11 11 12 14 15 15 16 17 19 20 22 22 23 23 24 24 25 25 26 27 28 29 31 32 31 31 30 29 29 31 32 33 33 34 35 36 36 36 38 39 41 41 40 41 41 41 40 40 39 40 40 40 39 38 36 35 35 34 33 32 30 29 29 30
11 11 9 8 6 5 5 5 3 2 1 1 0 3 4 5 7 8 8 10 11 11 10 11 13 15 15 15 15 17 18 20 21 22 23 24 26 27 26 26 26 27 27 29 30 30 30 29 29 28 29 31 31 31 32 33 33 33 33 34 35 37 38 39 39 39 39 38 38 38 38 38 38 38 37 36 34 33 33 32 32 30 28 27 28
11 11 10 8 6 5 4 4 4 3 3 3 2 2 4 6 7 7 7 8 10 11 10 11 12 14 14 14 14 15 17 19 22 23 24 25 26 27 27 27 26 26 26 27 27 28 28 28 29 29 29 30 31 31 30 31 31 31 30 30 32 33 35 37 38 38 37 37 36 36 36 36 36 36 36 36 34 33 32 31 31 30 29 27 27
11 11 10 8 6 4 4 4 5 5 5 5 5 4 5 6 7 6 6 7 10 10 10 10 12 13 13 14 14 14 15 18 20 22 24 25 25 26 27 28 27 27 26 26 26 26 26 27 28 28 29 30 31 31 30 30 30 30 28 27 28 30 31 33 34 35 36 36 35 35 35 34 34 34 34 34 33 32 31 30 29 29 29 28 27
12 12 11 8 7 5 4 5 5 6 6 6 6 5 5 6 6 5 5 7 10 10 10 10 11 12 12 13 13 13 14 16 18 20 22 23 24 25 26 27 28 27 26 25 25 24 25 26 26 27 28 28 29 30 30 29 29 29 28 26 25 26 27 29 30 31 33 33 34 34 34 33 32 32 31 31 30 29 29 28 27 27 26 26 26
14 13 12 10 9 7 6 5 6 6 7 8 7 5 5 5 6 5 5 6 9 10 10 10 10 11 11 12 13 13 13 14 16 18 19 21 22 23 24 25 26 27 27 25 24 23 23 24 25 25 25 26 27 29 30 29 29 28 28 27 25 23 23 25 27 28 29 30 31 32 32 31 31 30 29 27 27 26 26 27 26 25 24 23 23
15 14 13 12 11 9 8 7 7 8 8 8 7 6 5 6 6 6 6 6 8 9 9 9 9 10 11 12 13 13 13 13 14 15 17 18 20 21 22 23 24 25 26 25 24 22 22 22 22 22 23 24 26 26 27 28 28 28 27 26 25 22 21 21 23 25 26 27 28 29 30 30 29 29 27 26 24 24 24 24 25 24 23 22 21
15 14 14 14 14 12 11 9 8 8 9 9 8 7 6 6 6 5 5 6 7 8 9 9 9 9 11 12 12 13 13 13 14 14 15 16 18 19 20 22 23 23 24 24 24 22 21 20 20 21 21 23 23 24 24 25 26 27 27 26 25 23 21 20 20 22 23 24 24 26 27 27 27 27 26 25 24 22 21 21 21 22 22 22 20
17 16 15 15 15 14 13 11 9 9 10 10 9 8 7 6 5 4 5 7 7 8 9 9 9 9 10 12 12 13 13 13 13 13 13 14 15 17 18 19 21 22 22 23 23 23 21 19 19 20 21 22 22 22 22 23 24 26 26 26 25 23 22 20 18 18 19 20 21 22 24 25 26 25 25 24 24 22 20 19 18 18 18 19 20
18 17 17 16 16 14 14 13 11 10 10 11 10 9 8 7 6 5 5 7 8 8 9 9 9 9 10 11 12 13 13 13 13 13 13 13 14 14 15 17 18 20 21 21 22 22 21 19 18 19 20 20 20 21 22 22 23 24 25 25 24 22 21 19 17 15 15 16 18 19 20 22 23 23 23 22 22 22 20 19 18 16 15 15 16
16 16 16 17 16 14 14 15 14 12 11 11 11 10 9 8 8 7 7 7 8 9 9 10 10 10 10 10 11 13 13 13 12 12 12 13 13 13 14 14 15 17 19 19 19 20 20 19 18 18 18 18 19 19 20 21 22 23 24 24 24 22 21 19 17 15 14 14 15 16 17 18 19 20 20 19 19 19 19 18 17 16 15 13 13
15 15 16 17 16 15 15 15 15 14 12 12 12 11 11 10 9 9 8 9 9 10 10 10 11 11 10 10 10 12 13 13 12 12 12 12 12 12 13 13 14 15 17 18 18 17 17 18 18 17 17 17 18 18 19 20 21 22 22 23 23 23 22 20 17 15 14 13 12 13 13 15 16 17 17 17 17 17 16 16 16 15 14 13 12
15 15 16 17 17 16 15 15 16 15 14 12 12 12 12 12 12 11 11 11 11 11 11 11 11 12 11 10 9 11 13 13 12 12 12 12 12 12 13 13 14 14 15 16 16 16 15 15 16 16 17 17 17 18 18 19 19 20 21 22 22 23 22 20 19 16 14 13 12 11 11 12 13 14 15 15 15 14 13 12 12 13 13 12 10
16 15 15 16 17 17 16 15 16 17 16 15 14 13 14 14 14 14 13 13 13 13 13 12 12 12 12 11 9 10 12 13 13 12 11 11 12 12 12 13 14 14 14 14 15 16 15 14 14 15 15 16 16 17 18 18 18 19 19 20 21 22 21 20 19 17 15 14 12 11 10 10 10 11 12 13 13 12 11 10 9 9 10 10 9
18 18 17 17 17 18 18 18 18 19 19 18 17 16 15 15 16 16 16 16 16 15 14 13 13 13 13 12 10 10 11 13 13 13 12 12 12 12 12 13 13 14 14 14 13 14 15 14 14 14 14 15 15 16 16 17 18 19 19 20 21 21 21 20 19 18 17 15 14 12 11 10 9 9 10 11 11 11 10 9 9 8 7 8 7
Wind_Direction
25 29 29 28 25 32 38 41 45 42 39 35 29 26 22 19 19 16 12 10 8 6 4 3 3 360 358 356 355 355 354 353 352 352 351 350 348 346 345 344 343 342 341 340 339 338 335 329 320 313 306 296 285 278 279 283 283 282 282 286 289 287 285 280 273 271 272 270 265 260 259 259 256 253 252 249 245 240 236 233 231 229 228 228 227
29 33 38 51 62 70 72 70 67 63 60 54 47 43 39 38 37 31 27 25 21 17 15 14 12 8 6 4 3 2 0 359 358 357 356 355 353 352 350 349 347 346 345 344 342 341 339 338 332 322 313 305 293 280 278 282 283 282 280 281 288 290 288 285 279 274 273 273 268 260 257 259 259 256 253 249 245 241 238 236 233 230 228 227 226
38 51 71 87 88 86 82 75 72 68 65 62 58 55 51 48 45 39 36 34 30 27 24 21 18 14 11 9 7 5 3 2 2 0 359 358 357 356 354 353 351 349 348 347 345 344 342 341 341 336 325 315 306 292 280 280 282 281 275 273 279 286 289 287 282 276 274 275 274 267 258 257 260 260 257 253 248 244 241 239 236 232 229 226 225
80 87 97 98 92 88 81 76 75 73 71 68 64 59 55 52 47 43 41 37 33 30 26 22 19 15 12 10 7 5 4 2 2 1 1 0 359 358 356 354 353 351 350 348 346 346 344 342 342 341 337 327 319 309 292 281 279 280 276 272 273 278 285 289 284 278 275 276 276 273 266 259 257 257 256 255 251 246 243 241 238 236 231 226 224
110 107 105 100 94 89 85 83 81 77 74 69 65 62 57 53 49 45 40 36 33 30 26 22 20 16 14 11 9 6 4 2 1 1 1 0 359 358 357 356 354 352 350 348 347 345 344 344 341 340 339 334 327 320 308 292 283 281 281 280 279 276 278 284 286 282 277 275 275 274 270 265 260 254 250 250 250 247 244 241 241 241 235 229 226
116 111 106 100 97 93 90 87 83 78 74 70 66 63 58 53 50 45 41 37 34 31 27 24 21 19 16 14 11 8 5 3 1 1 0 359 359 358 357 356 355 353 351 349 347 345 343 343 342 339 336 334 329 323 317 309 297 287 283 284 285 282 278 278 282 285 281 276 275 274 270 266 264 258 250 246 244 245 245 243 241 242 238 231 227
112 109 106 101 98 96 92 88 83 79 75 71 67 63 58 54 49 46 42 38 36 33 29 26 22 20 16 14 12 10 7 4 3 2 1 359 358 357 357 356 355 354 353 351 348 345 343 341 341 340 338 334 329 323 319 316 309 300 292 288 288 287 284 280 279 283 284 279 275 273 270 264 261 260 255 247 241 242 246 244 240 238 236 233 230
112 111 108 104 100 97 93 89 85 81 76 72 68 62 58 54 50 47 43 39 37 33 29 26 22 19 16 14 13 11 9 7 6 5 3 0 359 357 357 356 355 355 354 353 351 348 345 342 339 339 339 336 330 324 320 317 314 308 300 293 290 289 288 285 281 280 281 280 277 274 273 267 258 256 253 245 237 237 242 243 242 239 236 234 231
114 113 110 105 101 98 95 92 88 84 79 74 69 64 59 55 51 48 44 40 37 32 29 25 22 20 18 16 14 12 11 10 9 6 4 1 359 358 358 357 357 356 355 354 353 351 349 345 340 337 335 332 329 324 320 316 314 311 308 302 295 291 289 288 286 283 280 279 277 275 274 267 255 249 247 240 233 235 240 242 243 242 239 236 233
112 112 110 106 103 101 98 95 91 86 81 76 71 66 61 56 52 48 43 40 36 32 28 25 23 21 19 18 16 14 13 12 10 7 5 2 360 358 358 358 358 358 357 356 354 352 351 348 345 339 333 328 327 325 320 315 310 307 306 306 304 297 291 288 288 287 284 280 276 274 273 267 255 248 246 242 235 235 239 240 239 240 238 233 230
112 111 109 106 105 103 100 96 92 87 82 77 72 66 60 56 51 47 43 40 36 33 30 28 26 25 23 21 19 17 16 13 10 8 6 4 1 359 358 358 358 358 358 358 356 354 352 350 348 344 339 334 332 328 324 319 314 306 299 298 301 301 297 291 287 285 285 282 277 272 271 270 263 253 248 245 239 237 239 240 238 237 234 227 222
115 111 108 107 106 103 100 96 91 87 82 76 70 64 59 56 51 47 43 41 38 36 34 32 30 28 26 24 22 20 18 15 11 9 7 5 3 1 360 359 359 359 359 359 358 356 354 352 350 348 345 342 338 333 328 324 320 315 307 297 292 292 294 292 288 284 283 281 278 273 269 270 268 261 254 248 242 240 241 242 239 236 233 229 225
116 112 109 107 106 103 99 96 91 86 80 73 67 63 59 56 52 48 45 42 40 38 36 33 31 29 27 25 23 21 18 16 13 11 9 7 5 3 2 1 1 1 0 359 358 358 357 355 352 351 349 346 342 338 334 330 324 320 315 307 297 289 287 286 284 282 282 280 277 273 270 268 266 264 261 254 245 240 241 242 242 239 235 233 232
117 113 111 108 105 102 97 93 88 82 77 71 66 63 60 57 52 48 45 42 40 38 35 33 31 29 27 24 22 20 18 16 14 12 9 8 6 4 3 3 3 3 2 1 360 359 357 355 354 352 349 346 343 339 336 333 330 325 321 316 308 298 290 285 280 277 277 277 274 272 269 266 264 262 263 259 250 243 240 240 242 242 240 238 240
115 112 110 107 104 100 95 90 85 80 76 71 68 66 63 58 52 47 43 40 38 36 34 32 31 28 26 23 21 19 18 16 15 12 10 8 7 5 4 3 3 4 3 2 1 0 358 356 354 352 348 345 342 338 334 333 332 330 327 322 317 309 300 293 287 279 272 270 270 270 269 265 263 261 260 259 255 248 243 242 243 245 246 245 243
112 109 107 105 102 97 92 88 84 80 76 73 71 69 64 58 52 46 42 39 37 35 34 32 30 27 25 22 20 19 17 16 15 13 11 10 8 6 6 5 5 5 5 2 1 1 360 357 355 352 348 346 342 336 332 330 331 331 330 327 323 316 306 299 295 286 276 269 264 265 266 265 261 259 258 259 257 254 249 244 240 239 241 241 238
110 106 103 101 98 93 89 85 82 80 76 73 72 68 63 57 51 45 40 37 36 35 33 31 28 26 24 22 21 20 18 17 16 15 14 13 10 8 7 6 6 6 5 3 1 1 0 358 356 353 350 347 343 337 332 330 331 331 330 327 325 321 316 308 298 289 281 272 264 259 260 262 259 255 254 255 256 256 251 245 239 234 231 231 231
111 106 101 99 95 89 84 79 77 75 73 71 69 65 61 56 51 45 40 36 36 35 32 30 27 25 24 23 22 21 19 18 17 17 17 15 12 11 8 7 7 6 4 3 2 1 0 359 358 356 353 349 344 338 334 332 333 333 330 327 324 322 321 317 307 296 286 275 265 256 254 257 257 252 250 250 251 250 248 246 244 237 229 227 227
116 111 104 99 93 86 81 75 71 70 68 67 65 61 59 55 51 45 39 36 35 33 31 29 27 26 25 24 23 22 21 20 19 19 20 18 16 13 10 8 8 6 4 3 2 2 1 360 360 359 356 353 349 344 339 336 336 336 333 328 323 320 320 318 314 309 299 282 267 256 249 250 253 251 248 247 247 246 246 247 246 240 232 228 226
125 120 111 102 93 85 79 72 68 66 63 62 61 58 56 55 51 45 39 35 33 31 30 29 28 27 26 25 25 23 21 21 20 20 21 21 19 16 13 10 9 7 5 4 3 3 3 2 2 1 358 357 355 351 347 344 343 342 339 333 328 322 318 315 314 313 309 295 276 259 247 244 247 247 245 244 244 244 244 245 245 241 236 229 225
133 128 118 107 96 86 78 71 66 63 60 58 57 56 54 53 49 44 38 33 30 29 29 29 29 28 27 26 25 24 22 21 21 21 22 22 20 18 15 13 11 8 7 6 5 5 5 4 4 2 0 360 360 358 355 353 353 352 347 341 334 325 317 315 314 313 311 304 286 266 251 243 243 244 243 242 243 243 243 242 242 242 238 233 228
137 135 126 114 100 87 78 71 66 63 58 55 55 54 52 50 46 43 38 33 29 27 27 28 29 29 28 27 25 24 23 22 22 22 21 20 19 19 17 14 12 10 9 8 7 8 8 7 6 4 2 2 2 4 3 1 1 1 356 350 342 334 329 328 323 316 311 307 291 271 258 248 243 243 244 244 244 244 242 242 242 242 242 242 239
140 139 133 122 107 91 78 70 66 62 57 53 52 51 50 47 44 41 38 34 29 26 26 27 27 27 27 27 26 24 23 22 22 21 20 18 18 19 18 16 14 13 12 10 10 10 10 10 8 6 5 5 5 7 8 8 8 7 4 0 356 354 354 355 350 337 323 308 281 262 256 252 248 246 246 248 247 246 245 244 244 243 242 243 242
145 141 139 132 115 96 83 72 65 61 57 53 50 48 47 45 42 40 38 34 29 25 25 25 26 26 26 26 25 23 22 22 21 20 19 18 17 18 19 19 17 17 16 15 15 15 13 12 11 10 10 10 9 9 11 11 12 12 11 9 8 12 17 19 17 13 6 357 340 276 253 253 254 251 248 248 247 249 251 251 250 246 240 237 237
154 146 143 140 126 106 90 78 68 61 57 52 48 46 44 42 41 38 36 33 29 26 24 24 24 26 26 25 25 23 21 21 21 20 19 18 17 18 21 22 20 19 19 18 18 18 16 14 12 12 13 14 13 13 14 14 15 16 16 16 16 20 27 31 31 31 31 33 37 39 25 272 266 260 256 254 253 255 256 254 251 246 240 236 234
161 155 151 147 139 123 101 83 70 65 59 51 47 43 39 39 39 37 34 33 30 26 25 23 23 24 25 25 25 22 21 21 21 21 20 18 17 18 20 21 19 18 18 18 18 18 17 15 13 13 16 17 17 17 17 17 17 18 19 20 20 23 29 33 37 39 40 42 47 53 58 61 55 350 289 275 268 266 262 255 248 243 241 238 235
165 162 159 155 151 140 121 95 75 69 61 51 44 39 36 37 38 35 33 32 30 27 26 24 23 23 22 23 24 22 21 21 21 21 21 19 16 16 17 18 17 16 17 17 18 18 18 17 16 15 17 18 18 19 19 19 19 19 20 21 22 24 28 33 37 42 46 47 51 57 66 74 78 75 71 66 56 19 276 256 244 235 230 229 231
171 168 163 161 158 151 141 121 82 67 59 50 43 38 37 38 37 34 33 32 30 28 26 26 25 23 21 21 22 22 21 21 22 22 21 19 15 13 14 14 13 14 16 17 18 20 19 18 17 16 17 17 17 18 19 20 21 21 21 21 22 24 27 30 34 41 47 50 53 57 63 68 72 73 74 75 77 79 79 70 147 201 208 211 214
175 174 169 166 164 160 160 164 105 62 57 49 43 42 44 42 39 35 32 32 30 28 26 26 26 25 22 20 20 20 20 21 23 23 23 22 18 14 13 13 11 12 14 16 19 21 21 20 19 18 17 17 17 18 19 19 20 22 22 22 22 24 27 29 32 36 42 47 52 55 57 60 62 65 69 71 73 75 69 62 69 79 72 103 161
180 181 178 175 176 173 174 187 165 60 53 51 51 54 53 48 43 38 34 32 31 28 26 25 24 24 24 22 20 19 18 19 21 21 23 25 23 18 15 14 12 12 14 18 21 22 21 21 20 19 19 19 19 19 19 20 20 21 23 24 24 25 27 30 32 34 37 42 46 49 52 54 56 59 62 65 68 69 67 68 78 83 74 79 114
186 187 184 183 182 177 179 185 158 62 49 61 76 73 61 51 45 41 37 34 32 29 26 26 24 23 22 22 22 21 19 18 18 18 19 22 22 19 14 12 13 15 17 20 24 24 22 20 20 20 21 21 21 20 20 20 22 22 23 24 25 26 27 30 33 34 35 37 39 41 43 45 47 50 53 56 61 66 71 78 82 85 90 103 117
189 187 185 185 181 176 179 172 141 71 60 95 104 86 67 56 47 40 37 34 31 29 27 25 25 23 21 20 21 21 19 18 17 16 16 16 16 16 13 11 13 17 20 23 25 24 22 20 20 21 22 21 21 21 20 20 22 23 24 25 26 27 28 31 34 37 39 40 40 40 41 42 44 46 48 50 54 58 63 69 73 77 85 96 107
198 194 188 185 181 175 169 160 139 106 107 118 111 85 66 56 44 37 34 30 27 28 27 25 24 23 21 20 20 19 18 17 17 16 15 13 12 11 10 11 15 18 19 21 23 23 22 21 20 21 22 22 21 20 20 20 21 22 25 26 27 28 29 32 36 40 42 44 44 44 44 45 47 50 52 54 56 57 59 62 67 71 76 80 86
198 200 192 187 185 177 162 145 127 124 121 110 91 67 53 42 33 29 27 25 24 24 25 25 23 22 21 20 19 19 17 16 17 17 16 15 14 12 10 13 19 21 20 20 20 19 19 19 19 19 21 21 21 21 21 20 20 21 24 27 27 28 31 34 37 40 43 45 46 46 46 46 48 50 52 54 55 56 58 59 61 66 74 79 82
189 195 192 189 191 189 172 140 113 114 114 87 65 51 35 23 19 18 17 17 19 21 22 23 22 20 19 19 20 20 17 16 17 18 18 17 16 14 13 15 19 20 19 19 19 18 17 18 17 17 18 19 21 21 22 22 21 21 23 26 28 29 31 34 37 40 42 43 45 46 47 47 48 49 50 51 52 53 54 56 57 60 69 79 86
183 191 192 192 195 196 187 160 122 111 110 82 52 33 16 6 5 8 9 8 10 15 18 20 20 18 16 18 21 21 19 18 18 18 18 19 16 14 14 15 15 16 16 16 17 17 17 18 17 16 15 16 18 20 22 23 24 23 23 26 28 30 32 34 36 38 40 42 44 45 47 47 47 48 49 50 50 51 52 54 56 58 63 72 81
178 185 186 186 187 188 187 181 163 137 139 123 37 12 5 355 353 359 4 2 3 8 12 14 16 17 14 15 19 21 20 19 19 18 19 20 19 17 17 15 13 13 14 14 15 16 17 18 17 16 15 14 15 17 20 22 25 25 24 26 29 32 33 35 37 38 40 42 43 44 45 46 46 47 48 49 50 50 51 52 54 58 62 69 75
172 175 172 172 175 178 189 198 196 195 203 206 304 5 6 357 352 355 359 359 1 5 7 5 8 12 12 12 15 17 16 15 17 19 21 21 20 20 19 17 15 14 14 14 14 15 17 18 17 15 14 14 14 14 16 18 22 26 26 26 29 33 35 36 37 39 41 42 43 44 44 44 44 46 48 50 52 52 52 52 53 56 59 66 72
173 173 170 171 175 185 203 214 212 215 226 231 250 322 348 351 350 350 353 358 1 3 3 359 359 5 10 11 11 13 13 12 15 19 21 21 20 20 19 19 18 17 15 14 14 16 17 18 17 15 14 14 14 15 15 15 17 22 26 27 29 32 36 36 36 37 39 41 43 44 44 44 43 44 47 50 51 52 53 53 53 54 57 62 68
186 183 182 182 185 198 220 229 225 225 229 234 253 287 316 331 337 340 347 358 3 3 0 354 351 358 6 9 9 11 13 14 16 18 19 19 19 19 19 19 19 19 17 15 14 17 18 18 17 16 15 15 15 16 16 16 16 19 23 27 29 31 34 36 35 34 35 37 40 42 43 43 43 42 44 46 48 49 51 52 53 54 57 62 67
204 201 200 200 201 214 238 244 237 235 235 239 255 280 300 314 323 327 335 355 4 5 1 353 348 353 2 7 9 11 13 14 15 16 16 17 18 17 17 19 20 19 18 16 15 17 19 18 16 15 15 14 14 14 15 16 18 18 20 23 26 29 32 35 36 35 34 33 35 36 38 40 42 42 42 43 44 46 48 50 52 54 58 62 66
216 214 216 218 219 224 239 250 247 244 243 245 257 277 292 302 312 316 323 347 3 7 3 357 352 353 359 4 7 10 13 14 13 13 13 14 15 15 15 16 18 19 19 18 16 17 18 18 16 14 12 12 12 12 13 15 17 19 19 20 22 25 29 32 34 35 34 33 32 32 33 35 37 40 41 42 43 45 47 49 51 53 57 62 67
224 225 227 230 232 233 239 247 251 251 248 250 260 275 286 295 306 313 320 337 355 4 5 1 358 359 2 4 4 7 10 12 10 9 9 9 11 12 13 13 15 17 18 18 17 16 16 17 16 15 12 11 10 11 14 15 16 18 19 19 21 22 24 28 32 34 34 33 32 31 31 31 32 35 39 41 43 45 47 50 52 53 54 59 64
229 232 232 233 236 238 238 242 250 254 253 255 262 269 278 290 304 316 326 333 344 355 360 360 2 5 7 6 4 4 5 7 6 5 4 5 6 8 9 10 11 14 16 16 16 16 15 16 15 15 14 13 13 15 17 19 19 19 19 19 20 21 20 23 28 32 33 32 32 31 31 30 30 32 35 38 41 44 47 48 50 51 53 55 60
233 237 236 233 234 235 234 237 246 255 259 261 262 265 274 287 300 316 330 334 338 344 349 352 358 5 8 7 6 3 1 2 1 360 359 1 2 4 6 7 7 9 13 14 14 15 15 15 14 14 16 18 18 20 22 22 22 22 22 20 19 19 19 20 23 26 29 30 31 31 31 30 31 32 33 34 35 39 44 47 48 49 52 54 56
236 239 236 231 231 234 236 237 243 253 262 263 262 264 273 285 295 302 316 328 333 336 340 343 348 354 1 5 5 3 359 357 356 355 354 356 357 0 3 4 4 6 9 11 12 12 14 14 14 15 18 20 22 23 24 24 24 24 24 22 21 20 19 19 20 22 25 27 28 30 31 32 32 33 33 32 32 34 38 43 47 48 50 53 55
236 236 231 229 231 236 238 239 243 250 258 261 261 262 268 279 289 294 300 312 322 325 328 333 338 343 348 354 359 0 357 353 350 350 350 350 351 354 358 0 2 3 5 9 10 10 10 11 12 14 17 19 20 21 23 24 23 23 22 22 22 21 21 20 20 19 21 23 25 26 28 30 32 32 32 31 32 32 34 39 43 45 48 53 57
238 236 232 230 233 236 236 238 241 247 253 258 259 259 262 269 279 286 291 300 309 314 316 321 328 333 336 340 348 355 354 350 347 346 345 345 346 347 350 354 358 359 1 5 8 7 6 6 8 10 13 15 15 16 18 19 21 21 20 19 19 19 20 20 20 18 18 19 19 18 19 22 25 27 28 29 28 29 32 37 42 42 45 51 57
239 241 239 237 236 236 237 239 243 246 251 255 257 257 259 264 272 279 286 292 298 303 306 309 316 322 326 329 337 346 349 347 345 343 341 340 340 341 344 347 350 352 355 359 2 3 3 2 1 4 8 10 10 11 13 14 16 17 18 18 18 16 16 16 18 19 18 16 14 12 13 14 16 19 21 23 23 23 25 30 35 37 37 41 49
238 243 246 245 241 239 240 242 245 247 250 252 254 256 258 261 265 272 279 285 290 293 297 300 304 310 316 319 324 334 341 343 342 340 338 337 335 337 340 341 342 344 346 350 354 357 359 357 355 356 359 3 6 7 9 10 11 11 12 14 14 14 13 12 13 15 16 16 14 11 7 6 7 9 11 14 18 21 21 19 21 27 32 34 36
243 244 247 249 247 245 245 246 247 248 249 251 254 256 257 259 263 268 272 277 282 286 289 291 293 299 306 309 312 321 332 337 337 337 336 335 334 335 337 338 338 338 339 341 345 349 352 353 353 351 350 353 358 1 3 6 8 8 8 9 9 9 9 9 9 9 10 12 13 12 7 3 1 1 2 5 10 15 17 14 9 10 18 26 29